Location: LDNL
(36.4545°S, 141.6685°E)
Time: 11:54:15
(UTC+10:00)

Tiros 1 despin weight - Pass Details

Date: 08 August 2022
Orbit: 590 x 639 km, 48.2° (Epoch: 23 September)

Event Time Altitude Azimuth Distance (km) Brightness Sun altitude
Rises 05:12:05 0° 243° (WSW) 2,957 - -26.9°
Reaches altitude 10° 05:15:01 10° 225° (SW) 2,052 - -26.3°
Maximum altitude 05:18:26 19° 178° (S) 1,527 - -25.6°
Exits shadow 05:18:32 19° 177° (S) 1,527 ? -25.6°
Drops below altitude 10° 05:21:52 10° 132° (SE) 2,052 ? -24.9°
Sets 05:24:48 0° 114° (ESE) 2,958 ? -24.3°
